Probability
0 0 0 0 0 0 0 0 0 0 0 0 0 0 0 0 0 0 0 0 0 0 0 0 0 0 0 0 0 0 0 0 0 0 0 0 0 0 0 0 0 0 0
0 0 0 0 0 0 0 0 0 0 0 0 0 0 0 0 0 0 0 0 0 0 0 0 0 0 0 0 0 0 0 0 0 0 0 0 0 0 0 0 0 0 0
0 0 0 0 0 0 0 0 0 0 0 0 0 0 0 0 0 0 0 0 0 0 0 0 0 0 0 0 0 0 0 0 0 0 0 0 0 0 0 0 0 0 0
0 0 0 0 0 0 0 0 0 0 0 0 0 0 0 0 0 0 0 0 0 0 0 0 0 0 0 0 0 0 0 0 0 0 0 0 0 0 0 0 0 0 0
0 0 0 0 0 0 0 0 0 0 0 0 0 0 0 0 0 0 0 0 0 0 0 0 0 0 0 0 0 0 0 0 0 0 0 0 0 0 0 0 0 0 0
0 0 0 0 0 0 0 0 0 0 0 0 0 0 0 0 0 0 0 0 0 0 0 0 0 0 0 0 0 0 0 0 0 0 0 0 0 0 0 0 0 0 0
0 0 0 0 0 0 0 0 0 0 0 0 0 0 0 0 0 0 0 0 0 0 0 0 0 0 0 0 0 0 0 0 0 0 0 0 0 0 0 0 0 0 0
0 0 0 0 0 0 0 0 0 0 0 0 0 0 0 0 0 0 0 0 0 0 0 0 0 0 0 0 0 0 0 0 0 0 0 0 0 0 0 0 0 0 0
3 0 0 0 0 0 0 0 0 0 0 0 0 0 0 0 0 0 0 0 0 0 0 0 0 0 0 0 0 0 0 0 0 0 0 0 0 0 0 0 0 0 0
3 3 3 0 0 0 0 0 0 0 0 0 0 0 0 0 0 0 0 0 0 0 0 0 0 0 0 0 0 0 0 0 0 0 0 0 0 0 0 0 0 0 0
3 3 3 0 0 0 0 0 0 0 0 0 0 0 0 0 0 0 0 0 0 0 0 0 0 0 0 0 0 0 0 0 0 0 0 0 0 0 0 0 0 0 0
0 3 3 0 0 0 0 0 0 0 0 0 0 0 0 0 0 0 0 0 0 0 0 0 0 0 0 0 0 0 0 0 0 0 0 0 0 0 0 0 0 0 0
0 0 3 0 0 0 0 0 0 0 0 0 0 0 0 0 0 0 0 0 0 0 0 0 0 0 0 0 0 0 0 0 0 0 0 0 0 0 0 0 0 0 0
0 0 0 0 0 0 0 0 0 0 0 0 0 0 0 0 0 0 0 0 0 0 0 0 0 0 0 0 0 0 0 0 0 0 0 0 0 0 0 0 0 0 0
0 0 0 0 0 0 0 0 0 0 0 0 0 0 0 0 0 0 0 0 0 0 0 0 0 0 0 0 0 0 0 0 0 0 0 0 0 0 0 0 0 0 0
0 0 0 0 0 0 0 0 0 0 0 0 0 0 0 0 0 0 0 0 0 0 0 0 0 0 0 0 0 0 0 0 0 0 0 0 0 0 0 0 0 0 0
0 0 0 0 0 0 0 0 0 0 0 0 0 0 0 0 0 0 0 0 0 0 0 0 0 0 0 0 0 0 0 0 0 0 0 0 0 0 0 0 0 0 0
0 0 0 0 0 0 0 0 0 0 0 0 0 0 0 0 0 0 0 0 0 0 0 0 0 0 0 0 0 0 0 0 0 0 0 0 0 0 0 0 0 0 0
0 0 0 0 0 0 0 0 0 0 0 0 0 0 0 0 0 0 0 0 0 0 0 0 0 0 0 0 0 0 0 0 0 0 0 0 0 0 0 0 0 0 0
0 0 0 0 0 0 0 0 0 0 0 0 0 0 0 0 0 0 0 0 0 0 0 0 0 0 0 0 0 0 0 0 0 0 0 0 0 0 0 0 0 0 0
0 0 0 0 0 0 0 0 0 0 0 0 0 0 0 0 0 0 0 0 0 0 0 0 0 0 0 0 0 0 0 0 0 0 0 0 0 0 0 0 0 0 0
0 0 0 0 0 0 0 0 0 0 0 0 0 0 0 0 0 0 0 0 0 0 0 0 0 0 0 0 0 0 0 0 0 0 0 0 0 0 0 0 0 0 0
0 0 0 0 0 0 0 0 0 0 0 0 0 0 0 0 0 0 0 0 0 0 0 0 0 0 0 0 0 0 0 0 0 0 0 0 0 0 0 0 0 0 0
0 0 0 0 0 0 0 0 0 0 0 0 0 0 0 0 0 0 0 0 0 0 0 0 0 0 0 0 0 0 0 0 0 0 0 0 0 0 0 0 0 0 0
0 0 0 0 0 0 0 0 0 0 0 0 0 0 0 0 0 0 0 0 0 0 0 0 0 0 0 0 0 0 0 0 0 0 0 0 0 0 0 0 0 0 0
0 0 0 0 0 0 0 0 0 0 0 0 0 0 0 0 0 0 0 0 0 0 0 0 0 0 0 0 0 0 0 0 0 0 0 0 0 0 0 0 0 0 0
Height
5794 5794 5794 5793 5792 5792 5791 5789 5788 5787 5786 5784 5782 5780 5779 5778 5776 5775 5773 5772 5771 5771 5770 5770 5770 5769 5769 5769 5769 5769 5770 5771 5771 5772 5772 5772 5772 5772 5773 5773 5774 5774 5774
5789 5788 5788 5787 5787 5786 5785 5783 5782 5781 5779 5777 5775 5774 5772 5770 5769 5767 5766 5765 5764 5764 5763 5763 5763 5762 5762 5762 5762 5762 5762 5763 5764 5764 5765 5765 5765 5765 5765 5765 5766 5766 5766
5783 5783 5782 5781 5780 5779 5778 5777 5775 5774 5772 5770 5768 5767 5765 5763 5762 5760 5758 5757 5756 5756 5756 5755 5755 5755 5755 5755 5755 5755 5755 5755 5755 5756 5757 5757 5757 5757 5757 5757 5758 5758 5758
5777 5776 5775 5775 5773 5772 5771 5770 5768 5766 5765 5763 5761 5760 5758 5756 5754 5752 5751 5749 5749 5748 5748 5747 5747 5747 5747 5747 5747 5747 5747 5747 5747 5748 5748 5749 5749 5749 5749 5749 5750 5750 5750
5770 5769 5768 5767 5766 5765 5764 5762 5761 5759 5758 5756 5754 5752 5751 5749 5747 5745 5743 5742 5741 5741 5740 5739 5739 5738 5738 5738 5738 5738 5738 5739 5739 5739 5739 5740 5740 5740 5741 5741 5741 5741 5741
5763 5762 5761 5760 5758 5757 5756 5754 5753 5752 5750 5749 5747 5745 5744 5742 5740 5738 5736 5735 5734 5733 5732 5731 5730 5730 5730 5730 5730 5730 5730 5730 5730 5730 5731 5731 5731 5731 5732 5732 5732 5733 5733
5756 5755 5753 5752 5751 5749 5748 5747 5745 5744 5743 5741 5739 5738 5736 5735 5732 5730 5729 5727 5726 5725 5724 5723 5722 5722 5722 5722 5721 5721 5721 5721 5721 5722 5722 5722 5722 5723 5723 5723 5723 5723 5724
5748 5747 5746 5744 5743 5741 5740 5739 5737 5736 5734 5733 5732 5730 5728 5726 5724 5722 5721 5719 5718 5717 5716 5715 5714 5714 5713 5713 5713 5713 5712 5712 5712 5713 5713 5713 5713 5713 5713 5714 5714 5714 5714
5741 5739 5737 5736 5734 5733 5731 5730 5729 5727 5726 5725 5723 5721 5720 5718 5716 5714 5712 5711 5710 5709 5708 5707 5706 5706 5705 5705 5704 5704 5704 5704 5704 5704 5704 5704 5704 5704 5704 5704 5705 5704 5705
5733 5731 5729 5727 5726 5724 5723 5721 5720 5719 5717 5716 5715 5713 5712 5710 5708 5706 5704 5703 5702 5701 5700 5699 5698 5697 5696 5696 5696 5696 5696 5696 5695 5695 5695 5695 5695 5695 5695 5695 5695 5695 5695
5724 5722 5721 5719 5717 5715 5714 5713 5711 5710 5709 5707 5706 5705 5703 5701 5699 5697 5695 5694 5693 5692 5691 5690 5689 5688 5688 5687 5687 5687 5687 5686 5686 5686 5686 5686 5686 5685 5685 5685 5685 5685 5685
5716 5714 5712 5710 5709 5707 5705 5704 5702 5701 5700 5698 5697 5696 5694 5692 5691 5689 5687 5685 5684 5683 5683 5682 5681 5680 5679 5679 5679 5679 5678 5677 5677 5677 5677 5676 5676 5676 5675 5674 5674 5675 5675
5707 5705 5704 5702 5700 5698 5696 5694 5693 5692 5690 5689 5688 5687 5685 5684 5682 5680 5678 5676 5675 5675 5674 5673 5672 5671 5670 5670 5670 5670 5669 5668 5668 5668 5668 5667 5666 5666 5665 5664 5664 5664 5665
5698 5696 5694 5692 5690 5688 5686 5685 5684 5682 5681 5680 5679 5678 5676 5675 5673 5671 5669 5668 5667 5666 5665 5664 5663 5663 5662 5662 5661 5661 5660 5660 5659 5658 5658 5657 5656 5656 5655 5655 5655 5654 5654
5689 5688 5686 5683 5681 5679 5677 5676 5674 5673 5672 5671 5670 5668 5667 5666 5664 5663 5661 5660 5658 5657 5656 5656 5655 5654 5654 5653 5652 5652 5651 5651 5650 5649 5648 5648 5647 5646 5646 5645 5645 5644 5644
5680 5679 5677 5675 5673 5671 5669 5667 5665 5664 5663 5662 5660 5659 5658 5657 5655 5654 5653 5651 5650 5649 5648 5647 5647 5646 5645 5644 5644 5643 5643 5642 5641 5640 5639 5638 5637 5636 5636 5635 5635 5635 5634
5671 5669 5668 5666 5664 5662 5660 5659 5657 5655 5654 5653 5652 5650 5649 5648 5647 5645 5644 5643 5641 5640 5640 5639 5638 5637 5636 5636 5635 5635 5634 5633 5632 5631 5630 5629 5628 5627 5627 5626 5626 5625 5625
5662 5660 5659 5657 5655 5654 5652 5650 5649 5647 5646 5644 5643 5641 5640 5639 5637 5636 5635 5634 5633 5632 5631 5631 5630 5629 5628 5627 5626 5626 5625 5624 5623 5622 5621 5620 5619 5618 5617 5617 5616 5616 5615
5652 5651 5649 5648 5646 5645 5643 5641 5640 5638 5637 5635 5634 5632 5631 5630 5628 5627 5626 5625 5624 5624 5623 5622 5621 5620 5619 5618 5618 5617 5616 5615 5614 5613 5612 5611 5610 5609 5608 5607 5606 5606 5606
5642 5641 5640 5638 5637 5635 5634 5632 5630 5629 5627 5626 5624 5623 5622 5620 5619 5618 5616 5615 5615 5614 5614 5613 5612 5611 5611 5610 5609 5608 5607 5606 5605 5604 5603 5602 5601 5600 5599 5598 5597 5597 5597
5632 5631 5630 5628 5627 5626 5624 5623 5621 5619 5617 5616 5615 5614 5612 5611 5610 5609 5607 5606 5605 5605 5604 5604 5604 5603 5602 5601 5600 5599 5598 5598 5597 5596 5595 5594 5593 5591 5590 5589 5589 5588 5588
5622 5621 5620 5618 5617 5616 5614 5612 5611 5609 5608 5606 5605 5603 5602 5601 5600 5599 5598 5597 5596 5595 5595 5595 5594 5594 5593 5592 5591 5590 5590 5589 5588 5587 5586 5585 5584 5583 5582 5581 5580 5579 5579
5611 5610 5609 5608 5607 5605 5604 5602 5601 5599 5598 5596 5595 5593 5592 5591 5590 5589 5588 5587 5587 5586 5586 5585 5585 5584 5583 5583 5582 5581 5581 5580 5579 5579 5578 5577 5576 5575 5574 5573 5572 5571 5571
5600 5599 5598 5597 5596 5594 5593 5592 5590 5589 5588 5586 5585 5584 5583 5582 5581 5580 5579 5578 5578 5577 5576 5576 5575 5574 5574 5574 5573 5572 5572 5571 5570 5570 5569 5568 5567 5566 5565 5565 5563 5563 5562
5589 5588 5587 5586 5585 5584 5583 5581 5580 5579 5578 5576 5575 5574 5573 5572 5571 5570 5570 5569 5569 5568 5567 5566 5566 5565 5565 5565 5564 5564 5563 5562 5562 5561 5560 5559 5559 5558 5557 5556 5556 5555 5554
5578 5577 5576 5575 5574 5573 5572 5571 5569 5568 5567 5567 5566 5565 5563 5562 5562 5561 5561 5560 5560 5559 5558 5557 5557 5556 5556 5556 5555 5555 5554 5554 5553 5553 5552 5552 5551 5550 5550 5549 5548 5547 5547
Wind_Speed
18 19 20 20 20 20 21 21 22 22 22 22 22 23 23 23 24 24 24 24 24 24 24 24 23 23 24 24 25 25 25 25 24 24 25 26 26 26 26 26 26 26 25
19 20 21 21 21 21 22 22 23 23 23 23 24 24 24 24 25 25 25 25 25 25 25 25 25 25 25 25 25 26 26 26 26 25 26 26 27 28 28 28 27 27 26
21 21 21 22 22 23 23 23 24 24 24 24 24 24 24 25 25 25 26 25 25 26 26 26 26 26 26 26 26 27 27 27 27 27 26 27 28 28 29 28 28 28 27
22 22 23 23 23 24 24 25 25 25 25 24 24 24 25 25 26 26 26 26 26 26 26 26 27 27 27 27 27 27 28 28 28 28 28 28 28 28 28 29 29 29 29
23 24 24 24 25 25 25 26 26 26 25 26 26 25 25 25 26 26 26 26 26 26 26 26 27 27 27 28 28 29 28 28 28 29 29 29 29 29 29 29 29 29 30
24 25 25 25 26 26 26 27 27 27 27 27 27 26 26 26 26 26 26 27 27 27 27 27 27 27 28 28 29 29 28 28 28 29 29 29 29 29 29 29 29 30 30
25 26 26 27 27 27 27 27 28 28 28 27 27 28 27 27 27 27 27 27 28 28 28 28 28 28 29 29 29 29 29 30 30 29 29 29 29 28 30 30 31 30 31
27 27 27 28 28 28 29 29 28 28 28 29 29 29 28 28 29 28 28 28 29 28 28 28 28 29 29 29 29 30 30 30 29 29 29 28 29 29 29 30 30 31 31
27 28 28 28 29 28 28 29 29 29 29 29 29 29 29 30 29 29 29 29 29 29 28 28 28 28 29 30 30 30 30 30 30 30 30 29 30 31 31 30 30 30 30
28 28 29 29 29 29 29 29 29 29 29 29 30 30 30 30 30 30 30 30 30 30 29 29 29 29 29 29 29 29 29 30 30 30 31 31 31 31 31 31 31 31 31
28 28 29 29 29 29 30 30 30 30 30 30 31 31 31 31 30 30 30 31 31 30 30 29 29 29 30 30 30 29 29 29 29 30 30 31 31 31 32 32 32 32 31
28 28 29 30 30 31 31 31 31 30 30 31 31 32 32 32 31 31 31 31 30 30 30 29 29 29 29 30 30 30 29 29 29 30 30 30 30 31 32 33 33 33 33
29 29 30 31 31 31 31 31 31 31 31 31 32 32 32 32 32 32 31 31 30 30 30 29 29 29 29 29 29 29 30 30 31 31 31 31 32 32 31 32 32 33 34
30 30 30 31 31 31 31 31 31 31 31 30 31 31 31 32 32 32 32 31 31 30 29 29 29 29 29 28 29 29 30 31 31 31 31 31 31 32 31 31 31 32 33
30 31 31 30 30 30 30 31 30 30 31 30 30 30 31 32 32 31 31 30 29 29 28 28 28 28 29 29 28 29 29 30 30 31 31 31 31 31 30 30 30 30 30
31 31 31 31 30 29 29 29 29 29 30 30 30 30 30 30 31 31 31 30 29 29 28 28 28 29 29 28 28 29 29 30 30 30 30 30 30 30 30 30 30 30 30
31 31 30 30 29 29 29 29 29 29 29 29 29 29 30 30 29 29 30 30 29 29 28 28 28 28 28 29 28 28 28 29 29 29 30 30 30 30 30 30 30 30 30
30 30 30 29 29 28 28 29 29 29 29 28 29 29 29 29 29 29 30 30 29 28 28 28 27 27 27 27 27 28 28 28 28 28 28 29 29 30 30 30 30 30 29
31 30 30 29 29 29 29 29 30 30 30 29 30 30 30 30 30 30 30 29 29 28 28 27 27 26 26 26 27 27 28 28 27 27 28 28 29 29 30 29 29 29 28
32 32 31 31 31 30 30 31 31 31 30 30 30 30 30 30 30 30 30 29 29 29 29 28 27 27 27 27 27 27 27 27 27 27 27 27 27 28 28 28 28 28 28
32 32 32 32 32 32 32 32 32 32 31 30 30 30 30 29 29 29 29 29 29 29 28 28 28 27 27 28 28 27 27 27 27 28 28 28 27 27 27 27 28 28 28
32 32 32 32 32 33 33 33 32 31 31 30 30 30 30 30 29 29 28 28 28 28 28 27 27 27 28 28 28 28 27 27 27 27 27 28 28 28 27 27 27 27 28
33 34 33 33 33 33 33 32 32 31 31 30 29 29 29 29 29 28 28 28 28 28 28 27 28 28 27 27 28 28 27 27 26 27 27 27 27 27 27 26 26 26 26
34 34 34 34 34 33 33 32 32 31 31 30 30 30 29 29 29 28 27 27 27 28 27 27 28 28 27 27 27 27 27 26 26 25 25 26 26 26 26 26 25 25 26
34 34 34 34 33 33 33 33 32 32 31 30 30 30 29 29 28 27 27 27 27 26 26 26 27 27 27 27 27 26 26 26 26 26 25 25 24 24 24 24 24 24 24
33 33 33 32 32 31 31 32 31 31 31 30 30 29 28 28 28 28 27 27 26 26 26 27 27 27 26 26 26 26 26 26 26 26 25 25 24 23 23 23 23 23 23
Wind_Direction
271 270 270 273 276 277 279 281 284 286 286 285 284 283 283 283 283 283 282 280 278 277 276 275 273 273 273 273 272 271 271 271 271 269 266 265 267 269 269 268 268 270 270
272 273 275 277 278 279 280 281 283 284 285 285 284 283 283 283 284 283 281 279 277 277 277 275 274 274 274 273 273 272 271 272 271 270 269 267 267 269 269 268 268 270 270
273 274 278 279 280 280 281 282 283 284 285 285 285 285 284 284 285 284 282 280 278 276 275 275 275 275 274 273 273 272 272 272 272 271 270 269 268 268 268 268 268 269 270
274 275 277 278 280 280 281 282 283 284 285 285 285 285 286 285 285 284 282 281 279 277 276 275 275 275 274 273 273 272 272 271 272 272 271 270 269 268 268 267 268 268 269
277 277 277 278 279 279 280 282 283 283 284 284 285 285 285 286 286 283 281 280 280 279 278 277 275 274 274 274 274 273 272 271 272 271 271 269 269 269 268 268 267 268 268
279 279 279 279 279 279 279 280 281 282 283 283 284 284 284 284 285 284 282 280 280 280 279 278 276 273 274 275 275 274 272 271 272 272 271 270 269 269 268 267 268 267 268
281 281 280 281 281 280 279 279 280 282 282 283 283 283 283 283 283 283 281 280 281 280 279 278 276 275 275 275 275 274 273 270 271 272 272 272 270 267 268 268 269 270 269
281 281 281 280 281 281 281 279 279 281 283 283 283 282 281 281 281 281 280 279 280 280 280 279 277 276 275 275 276 275 273 271 271 272 272 271 270 269 270 270 270 270 270
282 283 282 282 282 282 282 280 280 281 282 282 281 281 281 282 282 282 281 279 279 278 278 279 279 278 277 276 275 274 273 271 271 271 271 271 271 271 271 271 272 271 270
283 283 283 283 283 282 281 279 280 281 282 282 281 281 282 283 282 282 281 280 278 277 277 278 278 277 277 276 275 275 273 273 273 272 271 271 272 272 270 270 271 272 271
283 284 284 284 283 282 281 280 280 281 281 281 282 281 282 282 283 281 281 280 278 276 276 276 278 277 276 276 275 275 275 274 274 273 273 271 272 272 271 270 271 271 271
283 283 283 284 283 283 283 282 281 281 281 281 281 281 282 282 283 282 281 281 279 278 276 276 277 278 277 276 275 274 275 274 275 275 274 274 273 272 271 271 271 270 270
283 283 283 283 284 283 283 282 280 280 281 281 281 281 282 283 283 282 281 281 281 280 279 277 277 277 277 277 275 274 273 274 275 275 275 275 274 273 273 273 272 271 270
284 284 285 285 284 284 283 282 280 280 281 281 281 280 281 282 283 283 283 282 282 281 279 279 277 277 276 276 275 274 274 275 275 275 276 276 275 274 274 274 274 272 271
285 286 287 287 286 285 284 283 282 281 281 282 282 281 281 283 283 284 283 282 281 280 280 277 276 276 276 276 275 276 276 277 276 275 276 277 277 275 274 275 274 273 272
285 287 288 289 288 286 285 283 282 282 282 283 283 282 282 282 282 283 282 281 280 278 278 277 277 277 277 276 275 276 277 278 278 278 276 277 277 277 275 274 274 273 273
285 286 287 288 288 287 286 284 283 283 284 284 283 282 282 282 282 282 281 280 280 278 277 277 277 277 277 276 275 276 278 279 279 278 277 278 278 277 276 275 274 274 274
284 285 287 287 287 287 287 286 285 283 283 284 283 282 282 281 280 280 281 279 279 278 278 278 278 279 278 277 276 276 277 279 279 278 279 279 279 277 276 275 275 273 272
283 284 285 286 287 286 286 286 285 284 283 283 283 283 282 281 281 281 281 279 277 278 277 278 278 279 279 278 278 278 278 279 279 279 279 279 280 279 277 276 275 271 271
281 282 283 284 285 285 285 286 285 285 284 283 283 282 281 281 281 281 281 279 277 277 276 277 278 279 277 278 279 279 279 279 279 279 279 280 280 281 279 277 275 271 270
280 281 283 284 284 285 286 287 286 284 283 283 282 282 281 280 281 281 280 279 278 278 276 276 277 278 277 277 278 278 279 280 280 278 278 280 281 282 282 280 276 272 270
280 281 282 283 284 285 285 286 286 285 284 283 282 281 280 280 281 281 279 278 278 277 276 276 276 276 276 276 277 277 277 279 280 280 280 280 280 281 282 281 276 272 270
280 280 281 282 283 285 285 284 285 284 283 282 281 280 279 279 279 280 280 279 278 277 276 276 276 276 275 276 278 278 278 279 279 279 279 280 282 281 281 281 278 273 270
281 282 282 282 283 283 283 283 283 284 284 282 281 280 280 279 279 279 279 279 278 278 278 277 276 275 275 275 277 276 278 278 278 279 279 280 280 280 280 280 279 275 272
282 283 283 281 281 281 281 282 283 283 283 282 281 279 279 279 278 278 278 277 277 277 277 277 276 275 274 275 277 276 277 278 277 278 278 279 280 279 278 279 278 274 272
283 283 283 281 280 280 281 281 281 281 280 280 280 279 277 278 278 278 277 276 275 276 277 277 276 275 275 275 275 275 276 277 276 276 276 278 279 278 277 276 276 276 274